Temp
18 19 20 20 16 13 16 17 17 20 20 18 19 18 17 16 17 17 15 16 16 16 16 16 16 16 16 16 16 16 16 16 16 16 16 16 16 16 16 16 16 16 16 16 15 15 15 15 15
17 18 19 19 15 15 15 17 19 19 17 18 19 17 17 16 15 15 15 15 16 16 16 15 16 16 16 16 16 17 17 16 16 16 16 16 16 16 16 16 16 16 15 15 15 15 15 14 14
16 18 18 14 12 15 16 17 18 18 18 19 17 17 16 14 14 15 15 15 15 15 15 15 15 16 16 16 16 16 16 16 16 16 16 16 16 15 15 15 15 15 15 15 15 14 14 14 14
16 16 17 13 14 15 18 19 18 16 17 18 17 14 15 15 15 15 15 15 15 15 15 15 15 16 16 16 16 16 16 16 16 16 16 15 16 15 15 15 15 15 14 14 14 14 14 14 13
15 15 12 12 14 16 16 18 18 16 18 17 17 14 14 14 14 15 15 15 15 15 14 15 15 16 16 16 16 16 16 16 16 16 15 15 15 15 15 15 14 14 14 14 14 13 14 13 13
13 13 10 12 13 15 17 20 18 18 18 16 16 14 15 14 15 15 15 15 15 15 15 15 15 16 16 16 15 15 15 15 15 15 15 15 14 14 14 14 14 13 13 13 13 13 13 12 12
10 8 10 12 14 15 17 20 17 17 17 17 17 12 14 14 15 15 15 15 14 14 15 15 15 16 16 16 15 15 15 15 15 14 14 14 14 14 14 14 13 13 13 13 12 12 12 12 12
11 9 11 11 14 17 18 19 20 20 17 19 18 14 13 14 14 14 14 14 14 14 14 15 15 16 16 16 15 15 15 14 14 14 14 14 14 14 13 13 13 13 13 12 12 12 12 12 11
11 9 8 12 14 16 18 17 19 19 19 18 18 18 18 17 14 14 14 14 14 14 14 15 16 16 16 16 15 15 14 14 14 14 14 13 13 13 13 13 13 12 12 12 12 12 11 11 11
10 7 9 11 14 15 16 17 18 18 16 16 17 17 18 16 15 14 14 14 14 14 15 15 16 16 16 16 15 14 14 14 13 13 13 13 13 13 13 12 12 12 12 12 11 11 11 11 11
9 8 9 13 14 14 14 16 16 16 14 18 20 20 17 15 15 14 14 15 16 15 15 15 15 15 15 15 15 14 14 14 13 13 13 13 13 12 12 12 12 11 11 11 11 11 11 11 11
8 9 11 14 13 12 13 15 15 16 19 20 20 22 19 16 16 15 15 15 15 15 15 15 15 15 15 15 15 14 14 14 13 13 13 12 12 12 12 12 11 11 11 11 11 10 10 10 10
8 9 11 13 12 13 13 14 13 16 18 19 19 19 19 17 15 15 15 15 15 15 15 15 15 15 15 15 14 14 14 14 13 13 12 12 12 11 11 11 11 11 11 10 10 10 10 10 10
9 9 11 11 12 12 12 13 14 18 18 17 18 19 19 18 17 15 14 15 14 14 15 15 15 15 14 14 14 14 14 13 13 12 12 12 11 11 11 11 11 10 10 10 10 10 10 10 10
10 9 9 10 11 12 13 12 12 16 16 15 15 16 17 17 16 16 16 15 15 15 14 15 14 14 14 14 14 14 13 13 13 12 12 11 11 11 11 11 10 10 10 10 10 9 9 9 9
8 9 8 9 10 12 13 10 12 15 15 13 13 14 15 16 16 15 15 15 14 14 14 14 14 14 14 13 13 13 13 13 12 12 11 11 11 11 10 10 10 10 10 9 9 9 9 9 9
8 6 7 8 10 12 11 12 13 14 12 12 12 13 14 14 14 15 14 14 14 14 14 14 14 14 13 13 13 13 13 12 12 11 11 11 11 10 10 10 9 9 9 8 8 8 8 8 9
7 7 8 7 11 10 10 11 11 13 11 12 12 13 14 14 15 15 14 14 14 14 14 13 13 13 13 13 13 13 12 12 11 11 11 10 10 10 9 9 9 8 8 8 8 8 7 8 8
7 8 8 8 9 11 9 11 11 12 11 11 12 12 13 14 14 14 14 14 14 14 14 13 13 13 13 13 12 12 12 11 11 11 11 10 10 9 9 8 8 8 8 8 7 7 7 7 8
6 8 7 9 9 10 10 10 11 11 11 12 12 13 13 14 14 14 14 14 14 14 14 13 13 13 13 12 11 11 11 11 11 11 10 10 9 9 8 8 8 8 7 7 7 7 7 7 7
5 7 8 9 11 10 10 10 12 12 12 13 13 14 14 15 15 14 14 14 14 14 14 14 13 13 12 11 11 11 11 11 10 10 10 10 9 8 8 8 7 7 7 7 7 7 7 7 6
6 8 9 10 8 7 10 8 11 10 11 11 13 14 15 15 14 14 14 14 14 14 14 13 13 13 12 11 11 10 10 10 10 10 9 9 9 8 8 7 7 6 6 6 6 6 6 6 6
9 9 8 10 8 7 10 7 10 10 11 10 11 14 15 15 14 15 15 15 14 14 13 13 13 12 11 11 10 10 10 10 9 9 9 9 8 8 7 7 6 6 6 6 7 6 6 6 6
9 8 8 7 6 5 9 8 10 10 11 12 12 14 15 15 14 14 14 14 14 14 13 13 12 12 11 10 10 9 9 9 9 9 9 8 8 8 7 6 6 6 6 6 7 6 6 6 5
10 7 4 6 5 6 6 5 9 11 11 10 9 12 14 14 15 15 14 14 14 13 13 12 12 11 10 9 9 8 8 9 9 9 8 8 7 7 7 6 6 6 7 6 6 6 6 5 5
8 8 5 8 6 6 5 7 10 9 8 8 8 10 12 13 15 15 14 13 13 12 12 12 11 10 9 9 8 8 8 9 8 8 8 7 7 7 6 6 6 6 6 6 5 5 5 5 5
8 6 7 6 4 3 5 8 10 9 7 6 6 8 10 11 13 13 12 12 12 12 11 10 10 9 9 8 8 8 8 8 8 8 8 7 7 6 6 6 6 6 5 5 5 5 5 4 4
8 7 8 5 7 7 5 9 6 10 9 7 6 6 8 10 11 11 11 11 11 11 10 10 9 9 9 8 8 8 8 8 8 8 7 7 6 6 6 6 5 5 5 5 4 4 4 4 4
7 7 6 7 6 8 8 8 6 8 9 7 7 8 9 10 11 11 11 11 10 10 10 9 9 9 9 8 8 8 8 8 7 7 6 6 6 5 5 5 5 5 4 4 4 4 3 3 3
6 7 7 7 8 5 6 6 7 8 7 8 8 9 9 10 10 10 10 10 10 10 9 9 9 8 8 8 8 8 7 7 7 6 6 5 5 5 5 5 4 4 4 4 3 3 3 3 3
Height
1524 1524 1526 1528 1539 1541 1543 1530 1520 1517 1517 1516 1518 1519 1521 1523 1526 1538 1528 1531 1535 1538 1540 1543 1545 1547 1547 1547 1548 1548 1548 1547 1547 1547 1546 1545 1545 1544 1544 1543 1542 1542 1541 1541 1540 1539 1539 1538 1538
1522 1524 1526 1526 1542 1550 1542 1522 1519 1514 1514 1516 1518 1519 1521 1524 1525 1526 1528 1531 1535 1538 1540 1543 1545 1546 1547 1547 1548 1548 1547 1547 1547 1546 1546 1545 1545 1544 1543 1542 1542 1541 1540 1539 1539 1538 1537 1537 1536
1521 1523 1526 1527 1540 1542 1535 1516 1513 1513 1514 1515 1517 1520 1520 1522 1524 1525 1528 1531 1535 1538 1541 1543 1544 1546 1547 1547 1547 1548 1547 1547 1547 1547 1546 1545 1545 1544 1543 1542 1541 1540 1539 1539 1538 1537 1536 1536 1535
1520 1523 1525 1529 1531 1521 1515 1509 1510 1513 1514 1514 1516 1520 1521 1521 1523 1525 1527 1531 1535 1538 1541 1543 1544 1545 1546 1547 1547 1548 1548 1547 1547 1547 1547 1546 1545 1544 1543 1542 1541 1540 1539 1538 1537 1536 1535 1534 1534
1519 1520 1527 1529 1521 1512 1508 1507 1508 1511 1511 1512 1514 1518 1519 1520 1523 1525 1527 1531 1535 1538 1541 1542 1544 1545 1546 1546 1547 1548 1547 1547 1547 1547 1547 1546 1545 1544 1543 1542 1541 1540 1538 1537 1536 1535 1534 1534 1533
1518 1518 1529 1526 1520 1508 1504 1505 1506 1509 1511 1512 1514 1516 1519 1520 1522 1525 1528 1531 1535 1538 1540 1542 1543 1544 1545 1546 1547 1548 1547 1547 1547 1546 1546 1545 1545 1544 1543 1542 1540 1539 1538 1537 1535 1534 1533 1533 1532
1515 1519 1522 1518 1516 1511 1504 1503 1505 1506 1509 1511 1511 1517 1519 1519 1522 1525 1528 1531 1534 1537 1539 1542 1543 1544 1545 1545 1546 1547 1547 1547 1547 1546 1546 1545 1544 1543 1543 1542 1540 1539 1538 1537 1535 1534 1533 1532 1531
1516 1517 1517 1516 1514 1507 1502 1502 1501 1503 1506 1508 1510 1512 1515 1514 1519 1524 1527 1530 1532 1535 1538 1540 1542 1544 1544 1545 1546 1547 1547 1547 1547 1546 1545 1545 1544 1543 1542 1542 1540 1539 1538 1536 1535 1533 1532 1531 1530
1514 1520 1521 1511 1509 1505 1500 1501 1501 1501 1502 1505 1507 1507 1510 1512 1517 1521 1523 1526 1529 1533 1536 1539 1541 1543 1544 1545 1546 1546 1547 1547 1547 1546 1545 1545 1544 1543 1542 1542 1540 1539 1538 1536 1535 1534 1532 1531 1529
1513 1519 1515 1507 1503 1502 1501 1501 1500 1502 1502 1503 1504 1505 1507 1511 1514 1516 1518 1522 1527 1531 1534 1537 1540 1542 1543 1544 1545 1546 1546 1546 1546 1546 1545 1545 1544 1543 1543 1542 1540 1539 1538 1536 1535 1533 1532 1530 1529
1509 1510 1507 1505 1505 1502 1502 1500 1500 1498 1502 1496 1496 1501 1504 1508 1512 1516 1519 1523 1527 1530 1533 1536 1538 1540 1542 1543 1544 1545 1546 1546 1546 1546 1545 1545 1544 1544 1543 1542 1541 1540 1538 1537 1535 1533 1532 1530 1529
1510 1504 1505 1504 1504 1504 1502 1502 1499 1496 1493 1493 1495 1497 1500 1503 1507 1512 1517 1521 1525 1529 1532 1535 1537 1539 1540 1542 1543 1544 1545 1545 1545 1545 1545 1545 1544 1544 1543 1542 1541 1540 1538 1537 1535 1533 1531 1529 1527
1507 1505 1504 1504 1503 1504 1502 1499 1499 1492 1492 1491 1492 1496 1497 1502 1507 1512 1518 1522 1525 1528 1531 1533 1536 1538 1540 1541 1542 1544 1545 1545 1545 1544 1544 1544 1544 1544 1543 1542 1541 1540 1538 1537 1535 1533 1531 1529 1527
1503 1503 1503 1502 1502 1503 1502 1497 1496 1488 1489 1489 1490 1492 1495 1499 1503 1509 1515 1519 1522 1527 1530 1533 1535 1536 1538 1540 1542 1543 1544 1544 1544 1543 1543 1543 1543 1543 1542 1541 1540 1539 1537 1536 1534 1533 1531 1528 1527
1501 1505 1502 1500 1500 1501 1499 1497 1492 1489 1487 1489 1489 1491 1494 1497 1501 1506 1511 1516 1522 1526 1529 1532 1534 1535 1537 1539 1541 1542 1543 1543 1543 1543 1543 1543 1543 1542 1541 1540 1539 1538 1536 1535 1533 1531 1530 1528 1526
1502 1503 1506 1497 1496 1497 1499 1501 1488 1487 1486 1486 1489 1490 1492 1495 1499 1506 1511 1517 1522 1526 1529 1531 1532 1534 1536 1538 1539 1541 1542 1542 1543 1542 1542 1542 1542 1541 1540 1539 1538 1537 1535 1533 1532 1530 1529 1526 1524
1501 1507 1506 1502 1494 1494 1494 1494 1486 1485 1485 1485 1487 1489 1491 1495 1500 1504 1510 1516 1520 1524 1527 1529 1531 1533 1535 1537 1538 1539 1540 1541 1541 1541 1541 1540 1540 1539 1538 1538 1537 1535 1533 1531 1530 1528 1526 1524 1523
1504 1506 1502 1502 1493 1493 1493 1491 1484 1485 1485 1484 1487 1489 1491 1493 1497 1503 1508 1513 1518 1522 1526 1528 1530 1531 1533 1535 1536 1537 1538 1539 1539 1539 1539 1539 1538 1538 1537 1535 1534 1533 1531 1529 1528 1526 1525 1522 1520
1501 1499 1499 1497 1492 1493 1493 1489 1486 1484 1485 1485 1486 1488 1489 1492 1498 1503 1507 1511 1515 1519 1523 1526 1528 1529 1531 1533 1534 1535 1536 1537 1538 1537 1537 1537 1536 1535 1534 1533 1532 1531 1529 1527 1526 1524 1522 1521 1519
1503 1498 1498 1493 1489 1492 1490 1489 1483 1482 1481 1481 1482 1485 1488 1492 1495 1500 1504 1507 1512 1516 1521 1523 1526 1527 1529 1531 1532 1534 1534 1535 1535 1535 1535 1535 1534 1533 1532 1531 1530 1529 1527 1525 1523 1522 1520 1518 1516
1503 1500 1497 1495 1488 1488 1489 1490 1482 1479 1479 1479 1481 1484 1487 1490 1493 1497 1502 1505 1510 1513 1518 1521 1524 1525 1527 1528 1530 1531 1532 1532 1532 1532 1532 1531 1531 1530 1530 1529 1528 1526 1525 1524 1523 1521 1520 1518 1516
1500 1493 1491 1489 1496 1504 1489 1504 1483 1480 1478 1477 1478 1480 1483 1487 1491 1495 1499 1504 1507 1512 1516 1519 1521 1523 1524 1526 1528 1529 1529 1530 1530 1529 1529 1529 1528 1528 1527 1527 1526 1525 1524 1522 1521 1520 1519 1517 1515
1486 1486 1489 1487 1494 1500 1492 1504 1483 1481 1480 1477 1475 1476 1479 1483 1489 1493 1497 1502 1505 1510 1513 1515 1518 1520 1521 1523 1525 1526 1527 1527 1527 1527 1527 1526 1526 1525 1525 1524 1524 1523 1522 1520 1519 1518 1517 1515 1513
1483 1486 1490 1494 1500 1515 1491 1496 1485 1481 1474 1471 1470 1473 1477 1481 1486 1491 1495 1499 1502 1506 1509 1512 1514 1516 1518 1520 1522 1524 1524 1524 1524 1524 1524 1524 1523 1523 1523 1523 1522 1522 1521 1520 1519 1517 1515 1513 1512
1481 1492 1515 1513 1517 1505 1498 1505 1482 1470 1469 1470 1471 1472 1475 1479 1484 1488 1491 1495 1499 1503 1506 1509 1511 1513 1515 1517 1519 1521 1521 1521 1521 1521 1521 1521 1521 1520 1521 1521 1521 1520 1519 1518 1517 1515 1514 1512 1511
1486 1489 1506 1496 1509 1503 1502 1495 1474 1470 1470 1469 1468 1470 1473 1477 1481 1484 1488 1493 1497 1501 1505 1507 1509 1511 1512 1514 1516 1517 1518 1518 1519 1518 1518 1518 1518 1518 1518 1518 1518 1518 1517 1516 1515 1514 1512 1511 1509
1485 1493 1490 1497 1512 1518 1502 1480 1471 1471 1471 1469 1468 1470 1473 1477 1479 1483 1487 1492 1497 1500 1504 1506 1507 1509 1510 1511 1513 1514 1515 1515 1515 1515 1515 1515 1515 1515 1515 1515 1515 1515 1515 1515 1514 1513 1512 1509 1507
1485 1489 1490 1500 1497 1494 1500 1478 1485 1472 1471 1470 1472 1473 1475 1478 1481 1484 1489 1493 1497 1500 1502 1503 1505 1506 1507 1508 1510 1511 1512 1512 1512 1512 1512 1512 1512 1512 1512 1512 1512 1512 1513 1512 1511 1510 1509 1507 1504
1488 1489 1490 1493 1500 1486 1484 1483 1476 1473 1471 1473 1475 1477 1478 1480 1482 1486 1489 1493 1496 1499 1501 1502 1503 1504 1505 1506 1508 1509 1509 1509 1509 1509 1509 1509 1509 1510 1510 1510 1510 1510 1509 1508 1507 1506 1506 1503 1500
1485 1483 1482 1494 1486 1495 1488 1491 1472 1472 1472 1474 1476 1478 1479 1481 1484 1487 1490 1493 1496 1498 1499 1500 1501 1502 1502 1504 1505 1506 1506 1506 1506 1506 1506 1507 1507 1507 1508 1508 1508 1508 1506 1506 1504 1502 1501 1497 1494
Wind_Speed
11 8 6 3 3 4 4 6 2 1 2 2 9 6 7 4 4 3 14 17 19 15 13 10 8 5 3 2 3 2 3 3 3 4 4 5 5 5 6 6 5 6 7 8 8 9 9 10 11
10 7 5 3 4 2 5 4 5 4 6 16 13 10 3 3 4 10 19 18 17 12 11 9 7 4 3 2 2 2 3 3 4 4 5 5 6 6 7 7 7 7 8 8 8 8 8 9 9
7 8 4 4 4 7 5 5 6 4 16 5 5 3 4 6 7 23 13 23 18 12 11 9 6 4 2 2 1 2 2 3 3 4 5 5 6 6 7 7 7 8 8 8 9 9 9 9 8
5 6 1 4 8 7 6 4 5 9 7 5 7 4 5 7 16 17 23 23 17 12 11 9 6 3 2 1 1 1 2 3 4 5 5 5 6 7 8 8 8 8 8 8 8 9 9 9 9
10 3 2 3 7 4 5 3 11 6 5 6 11 6 5 11 12 15 25 22 16 13 12 9 6 4 3 1 0 1 2 3 4 5 5 6 7 8 9 9 9 9 9 9 9 9 9 9 9
6 3 2 7 6 5 4 9 10 5 4 7 6 12 6 14 13 19 24 21 17 12 10 10 7 5 3 2 1 1 2 3 5 5 6 7 8 8 9 9 9 9 10 10 10 10 9 10 10
3 3 5 3 5 6 5 12 8 9 7 6 7 7 6 18 16 21 23 21 18 15 12 10 7 5 4 2 1 2 2 4 5 6 7 8 8 8 9 9 10 10 11 11 11 11 10 9 9
2 3 4 5 6 12 5 9 10 15 8 7 11 6 6 25 23 25 24 21 19 15 13 11 8 6 4 2 1 1 3 4 6 6 7 7 8 8 9 10 11 11 12 12 13 12 12 11 11
3 0 3 6 6 3 4 6 5 9 10 10 12 6 5 24 29 30 28 25 21 17 15 12 9 6 4 2 1 1 3 5 6 7 7 7 7 7 8 10 11 12 13 13 13 13 12 12 11
5 3 6 4 2 2 7 4 7 7 8 8 12 11 8 26 33 34 32 28 24 19 16 13 10 7 4 2 0 1 3 5 6 7 7 7 7 7 9 10 12 13 13 14 14 14 13 13 11
4 5 4 4 3 4 6 6 3 4 3 16 25 22 19 30 34 34 30 25 21 19 16 13 10 8 5 3 1 1 3 4 6 7 7 6 6 7 8 10 11 12 13 13 13 13 13 12 11
3 8 8 11 3 10 8 14 9 12 9 18 25 27 26 32 35 36 31 27 24 20 16 14 11 8 6 3 2 1 2 4 6 7 6 5 5 6 8 9 11 12 13 14 14 14 14 13 13
3 3 7 21 19 13 10 9 9 14 20 13 18 27 28 31 34 34 28 24 23 20 17 14 11 9 6 4 2 2 2 4 6 6 5 4 4 6 8 10 11 12 13 13 13 13 13 13 13
2 6 16 23 17 10 6 9 4 7 17 13 20 30 30 32 34 34 31 28 25 20 17 14 11 9 7 5 4 3 3 5 6 6 5 4 5 6 8 10 11 12 13 14 15 15 14 14 14
12 6 5 8 11 4 5 8 6 14 11 15 25 31 31 33 33 33 32 30 23 19 16 14 12 10 8 6 5 4 4 5 6 6 6 5 6 7 9 10 12 13 14 15 16 15 15 15 13
4 2 2 5 7 7 5 8 10 12 15 19 24 29 31 33 32 30 30 26 22 20 17 15 13 11 9 8 7 6 6 6 7 7 6 6 7 8 10 12 13 14 15 16 16 17 15 15 15
3 3 6 6 8 5 7 4 6 10 16 19 24 27 28 29 28 28 27 25 22 20 18 15 13 11 9 9 8 8 8 8 8 7 7 7 8 9 11 13 14 14 15 16 17 17 18 17 15
3 2 3 5 3 5 4 7 9 9 14 19 22 23 25 27 27 25 25 25 22 20 18 14 11 11 10 10 10 10 9 9 9 8 8 8 9 10 12 13 14 15 15 16 16 16 16 17 18
6 4 6 4 8 3 8 5 11 6 10 10 19 22 25 25 22 21 23 24 23 22 20 16 13 11 10 10 10 11 10 10 10 10 10 10 11 11 12 13 14 15 16 15 15 15 15 13 14
9 5 6 5 6 5 5 10 9 4 6 15 20 23 23 20 20 21 23 24 23 20 20 18 15 13 10 10 11 11 11 11 11 11 11 11 12 12 13 13 14 14 13 12 13 13 12 11 12
8 6 4 6 1 2 3 5 4 2 6 8 14 16 18 20 20 21 25 23 21 20 19 16 14 14 13 13 12 12 12 13 13 12 12 12 12 12 13 14 14 13 12 11 11 11 12 12 11
11 8 5 5 3 4 3 4 5 5 7 6 16 16 18 20 20 21 23 22 21 19 17 16 16 16 15 15 14 14 14 14 13 14 13 13 13 12 13 13 12 11 10 10 11 11 11 11 11
5 4 5 1 3 2 1 2 6 1 6 7 11 20 20 19 19 20 21 20 19 18 18 18 18 18 18 17 16 16 15 15 14 14 13 13 13 13 12 12 10 10 10 11 10 10 12 13 12
4 5 4 3 3 1 4 4 5 5 7 5 8 21 20 18 18 19 19 19 20 19 18 17 17 17 17 17 16 16 15 15 14 13 13 13 13 12 11 10 9 10 10 10 11 12 12 12 12
3 3 2 2 1 5 1 3 8 2 1 2 3 5 14 18 18 20 21 22 20 19 17 15 14 14 14 15 15 15 15 14 13 13 13 12 11 10 9 9 10 9 10 11 11 11 11 11 12
4 5 4 5 3 3 3 5 5 1 4 6 6 8 8 16 16 17 20 20 19 17 15 14 12 12 13 12 13 13 12 12 12 12 11 10 10 9 9 9 8 9 10 9 9 10 11 13 14
3 2 3 4 2 2 2 5 4 1 5 8 6 6 13 13 14 14 15 15 14 12 10 10 9 10 11 11 11 11 11 12 12 11 10 10 10 9 9 9 9 9 8 8 9 11 13 15 17
1 2 2 2 2 4 3 3 4 1 2 5 6 9 14 15 15 14 12 9 8 7 7 7 7 8 8 9 11 11 12 12 11 11 11 10 10 9 10 10 9 8 8 9 10 12 14 18 23
2 2 3 2 4 3 3 5 5 2 1 6 5 9 12 13 12 12 11 9 7 6 5 4 5 6 8 10 11 12 12 12 12 12 11 11 10 11 11 11 10 9 9 9 10 14 19 24 27
2 2 1 3 4 4 1 3 2 2 4 8 8 9 10 11 11 11 9 7 6 4 3 3 4 5 7 10 11 12 13 13 13 12 11 11 12 12 12 11 11 11 11 12 16 21 26 31 28
Wind_Direction
260 253 241 257 39 60 263 263 255 230 196 142 146 162 174 108 157 193 148 157 166 170 167 169 173 183 218 274 297 304 317 336 349 351 348 349 346 345 343 336 326 316 314 310 306 302 296 289 284
249 236 197 151 114 141 259 246 229 220 143 118 109 110 109 116 130 148 149 157 163 172 171 175 181 199 238 289 307 327 347 357 5 7 1 359 356 355 352 347 339 331 328 322 317 311 304 298 295
230 205 183 150 156 197 217 219 219 148 144 136 115 122 151 144 159 157 161 159 162 167 178 178 192 209 249 273 303 334 2 16 16 14 10 0 355 356 352 348 343 337 333 329 323 320 312 304 297
204 184 163 148 202 240 201 231 190 139 194 181 158 113 157 171 161 172 162 158 162 169 176 184 197 218 241 253 308 5 15 23 19 16 10 5 357 356 355 349 346 345 343 338 334 331 321 311 301
192 191 167 204 227 233 231 259 174 168 173 167 166 171 171 160 162 172 164 163 169 176 182 192 202 223 233 238 348 36 39 26 21 17 10 6 357 356 355 354 353 351 348 345 343 342 331 319 306
185 143 147 209 235 226 243 204 162 183 170 163 153 140 159 173 171 165 165 168 174 194 199 203 209 221 215 203 135 56 32 25 22 18 5 4 355 358 1 357 358 355 350 347 343 342 338 330 324
157 117 202 194 222 263 218 199 187 176 175 216 165 130 179 176 172 170 170 175 179 193 204 205 211 217 208 191 119 55 25 18 15 8 6 2 3 7 5 4 5 2 356 352 348 341 340 335 329
232 117 185 209 193 237 222 184 220 184 199 181 179 180 196 187 173 172 174 177 183 189 193 200 207 206 199 186 135 35 9 7 9 5 12 7 9 11 11 9 7 3 360 356 352 348 343 337 331
153 325 228 200 177 238 207 197 218 199 160 174 196 208 207 187 172 177 179 183 186 188 187 192 199 199 195 189 149 21 5 6 9 7 9 11 14 13 12 10 7 4 2 357 353 349 346 341 332
177 165 217 238 232 298 313 257 195 173 171 197 203 214 196 184 180 185 187 186 187 189 186 189 193 196 196 192 197 11 4 2 4 4 5 9 14 14 11 10 8 6 2 359 355 352 349 344 337
201 212 206 279 302 31 345 317 302 180 247 200 204 204 188 183 188 192 192 193 189 187 188 191 194 194 194 194 229 343 357 360 359 358 360 5 8 8 8 8 8 5 3 360 358 354 350 346 342
270 240 235 260 250 339 324 315 312 224 225 227 220 210 191 190 194 195 194 190 191 191 191 193 195 196 197 200 227 306 345 352 352 351 348 350 358 1 2 3 1 0 359 358 356 354 354 351 347
253 293 300 241 277 300 305 286 264 267 236 262 216 201 197 194 196 196 197 194 194 194 196 196 197 199 203 211 230 280 315 338 343 339 333 331 340 347 351 352 352 353 352 350 349 349 349 349 346
254 243 247 270 288 294 287 281 306 275 239 238 198 197 197 197 197 194 195 198 197 197 199 201 201 204 208 219 234 257 297 327 331 323 313 309 320 333 338 339 340 340 340 341 341 341 341 341 342
250 311 331 265 259 252 325 297 230 252 233 207 191 194 194 198 200 200 197 198 200 200 203 205 208 209 215 226 240 254 279 303 315 311 304 298 308 319 324 325 328 330 332 334 334 333 332 331 332
154 160 228 276 182 243 155 269 286 251 216 203 197 196 197 199 203 201 204 202 201 204 206 209 211 213 220 229 240 251 264 282 300 305 298 294 299 307 314 319 322 325 326 326 327 327 326 325 325
193 229 230 319 223 202 179 257 260 237 210 204 202 201 200 200 203 205 206 207 206 205 209 209 212 217 224 233 241 251 263 279 298 303 295 293 296 304 313 318 319 319 321 322 325 327 328 328 328
236 221 242 207 277 211 207 249 280 244 215 215 207 206 204 203 205 203 205 205 205 206 208 209 214 219 226 234 242 251 262 279 293 302 295 288 297 307 311 315 316 320 320 321 324 329 332 333 332
300 210 224 235 235 256 215 225 252 246 230 216 213 210 207 207 204 207 207 202 201 203 209 214 222 225 234 243 252 258 269 278 288 292 291 290 298 301 305 310 314 316 319 321 324 329 334 338 335
283 260 247 286 252 179 218 233 247 206 229 224 217 212 211 207 207 209 201 199 203 207 212 218 225 229 238 246 253 263 275 280 284 289 287 287 291 293 297 304 310 314 317 317 320 324 331 340 343
242 246 234 211 315 199 118 290 233 251 234 236 239 234 226 219 212 203 202 202 204 208 213 222 231 236 240 246 255 270 280 282 282 287 286 284 286 291 297 302 307 311 316 320 324 328 330 333 340
226 215 240 217 111 204 139 255 235 232 248 222 237 235 232 225 215 206 205 206 208 209 215 224 231 237 242 249 259 272 279 282 284 281 281 286 289 291 293 297 300 308 313 319 320 321 323 328 329
201 172 201 187 140 71 251 82 254 112 252 251 239 235 232 227 220 211 211 214 215 215 220 225 229 235 242 252 259 269 281 280 278 282 284 285 287 288 290 292 293 299 305 310 314 318 318 319 319
228 86 58 50 81 35 237 144 262 188 201 233 233 237 231 224 216 210 210 213 214 218 221 225 232 238 242 248 259 269 274 280 280 282 284 283 285 288 287 287 292 299 305 309 311 311 312 315 318
69 108 35 16 352 221 272 83 244 270 245 268 310 271 225 214 208 208 209 211 214 218 223 229 236 240 244 249 257 269 275 276 279 281 282 283 282 281 282 286 291 295 300 303 308 314 321 326 326
168 155 158 192 204 248 344 210 248 317 341 323 292 249 206 193 196 201 206 207 209 215 225 234 240 245 246 254 263 266 269 273 279 281 280 278 276 275 279 281 281 289 296 303 314 321 324 326 327
164 165 163 92 112 56 220 273 333 36 5 26 30 167 168 170 167 169 177 188 199 212 224 242 247 247 252 255 255 259 267 275 278 280 278 275 273 272 265 270 279 285 291 306 319 324 328 331 333
142 173 110 41 252 235 273 257 215 21 19 58 62 118 135 136 135 139 149 167 190 214 226 234 242 241 242 247 254 262 271 277 279 278 275 270 265 256 260 267 271 276 290 306 318 327 331 330 328
159 140 74 133 179 252 145 261 212 245 186 112 104 116 120 122 123 127 132 144 164 186 207 231 250 256 256 260 265 270 275 277 276 275 270 264 257 258 263 266 267 274 287 299 312 323 322 325 325
149 172 148 156 238 233 216 274 3 75 96 124 113 114 114 113 118 126 130 130 136 154 181 223 248 258 264 268 269 271 275 275 275 272 266 258 257 262 265 264 269 279 290 295 307 315 320 323 321